PIMOHWEATHER Station Historical Data
Daily Summary for August 03, 2020 Units:  Metric    English   Both
Daily Weekly Monthly Yearly
  High: Low: Average:
Temperature: 35.0 °C 26.0 °C 30.3 °C
Dew Point: 25.0 °C 22.0 °C 24.1 °C
Humidity: 88% 51% 71%
Wind Speed: 30km/h 0km/h 9.7km/h
Wind Gust: 40km/h - -
Wind- - South
Pressure: 1013.5 hPa 1009.9 hPa -
Precipitation: 0.00 mm    
 
 
Tabular Data for August 03, 2020
Time Temperature Dew Point Pressure Wind Wind Speed Wind Gust Humidity Rainfall Rate (Hourly) solar
00:04 28.0 °C 25.0 °C 1013.5 hPa SSE 6 km/h 8 km/h 84% 0.00 mm 0.00 W/m2
00:09 28.0 °C 25.0 °C 1013.5 hPa SSE 4 km/h 4 km/h 83% 0.00 mm 0.00 W/m2
00:14 28.0 °C 25.0 °C 1013.3 hPa SSE 5 km/h 8 km/h 83% 0.00 mm 0.00 W/m2
00:19 28.0 °C 25.0 °C 1013.3 hPa SSE 7 km/h 8 km/h 84% 0.00 mm 0.00 W/m2
00:24 28.0 °C 25.0 °C 1013.3 hPa South 5 km/h 8 km/h 84% 0.00 mm 0.00 W/m2
00:29 28.0 °C 25.0 °C 1012.9 hPa South 5 km/h 8 km/h 85% 0.00 mm 0.00 W/m2
00:32 28.0 °C 25.0 °C 1013.0 hPa South 4 km/h 4 km/h 85% 0.00 mm 0.00 W/m2
00:44 28.0 °C 25.0 °C 1012.7 hPa Calm     85% 0.00 mm 0.00 W/m2
00:49 28.0 °C 25.0 °C 1012.7 hPa Calm     85% 0.00 mm 0.00 W/m2
00:54 28.0 °C 25.0 °C 1012.8 hPa Calm     84% 0.00 mm 0.00 W/m2
00:59 28.0 °C 25.0 °C 1012.7 hPa Calm     84% 0.00 mm 0.00 W/m2
01:04 28.0 °C 25.0 °C 1012.7 hPa Calm     84% 0.00 mm 0.00 W/m2
01:09 28.0 °C 25.0 °C 1012.6 hPa Calm     85% 0.00 mm 0.00 W/m2
01:14 28.0 °C 25.0 °C 1012.4 hPa Calm     85% 0.00 mm 0.00 W/m2
01:19 28.0 °C 25.0 °C 1012.2 hPa Calm     85% 0.00 mm 0.00 W/m2
01:24 28.0 °C 25.0 °C 1012.0 hPa Calm     85% 0.00 mm 0.00 W/m2
01:29 28.0 °C 25.0 °C 1012.0 hPa Calm     85% 0.00 mm 0.00 W/m2
01:34 28.0 °C 25.0 °C 1011.9 hPa Calm     85% 0.00 mm 0.00 W/m2
01:39 28.0 °C 25.0 °C 1011.9 hPa Calm   4 km/h 86% 0.00 mm 0.00 W/m2
01:44 27.0 °C 25.0 °C 1011.7 hPa South 1 km/h 4 km/h 86% 0.00 mm 0.00 W/m2
01:49 27.0 °C 25.0 °C 1011.9 hPa South 1 km/h 4 km/h 86% 0.00 mm 0.00 W/m2
01:54 27.0 °C 25.0 °C 1011.9 hPa Calm   4 km/h 86% 0.00 mm 0.00 W/m2
01:59 27.0 °C 25.0 °C 1012.0 hPa SSE 3 km/h 4 km/h 87% 0.00 mm 0.00 W/m2
02:04 27.0 °C 25.0 °C 1011.7 hPa SSE 3 km/h 8 km/h 86% 0.00 mm 0.00 W/m2
02:09 27.0 °C 25.0 °C 1011.6 hPa Calm   4 km/h 87% 0.00 mm 0.00 W/m2
02:14 27.0 °C 25.0 °C 1011.4 hPa SSE 1 km/h 4 km/h 87% 0.00 mm 0.00 W/m2
02:16 27.0 °C 25.0 °C 1011.4 hPa SE 4 km/h 8 km/h 86% 0.00 mm 0.00 W/m2
02:24 27.0 °C 25.0 °C 1011.3 hPa SE 5 km/h 8 km/h 87% 0.00 mm 0.00 W/m2
02:29 27.0 °C 25.0 °C 1011.5 hPa East 4 km/h 8 km/h 86% 0.00 mm 0.00 W/m2
02:34 27.0 °C 25.0 °C 1011.1 hPa NE 5 km/h 8 km/h 86% 0.00 mm 0.00 W/m2
02:39 27.0 °C 24.0 °C 1011.0 hPa SE 4 km/h 8 km/h 85% 0.00 mm 0.00 W/m2
02:44 27.0 °C 25.0 °C 1011.1 hPa South 1 km/h 4 km/h 85% 0.00 mm 0.00 W/m2
02:49 27.0 °C 24.0 °C 1011.0 hPa SE 5 km/h 8 km/h 85% 0.00 mm 0.00 W/m2
02:54 27.0 °C 24.0 °C 1011.0 hPa SE 4 km/h 8 km/h 85% 0.00 mm 0.00 W/m2
02:59 27.0 °C 24.0 °C 1011.0 hPa ESE 7 km/h 8 km/h 85% 0.00 mm 0.00 W/m2
03:04 27.0 °C 24.0 °C 1011.1 hPa SE 4 km/h 8 km/h 85% 0.00 mm 0.00 W/m2
03:09 27.0 °C 24.0 °C 1010.9 hPa SSE 2 km/h 4 km/h 85% 0.00 mm 0.00 W/m2
03:14 27.0 °C 24.0 °C 1011.0 hPa Calm     85% 0.00 mm 0.00 W/m2
03:19 27.0 °C 24.0 °C 1011.1 hPa Calm     85% 0.00 mm 0.00 W/m2
03:24 27.0 °C 24.0 °C 1011.1 hPa Calm     85% 0.00 mm 0.00 W/m2
03:29 27.0 °C 24.0 °C 1011.1 hPa Calm     85% 0.00 mm 0.00 W/m2
03:34 27.0 °C 24.0 °C 1011.1 hPa Calm     86% 0.00 mm 0.00 W/m2
03:39 27.0 °C 24.0 °C 1011.0 hPa Calm     86% 0.00 mm 0.00 W/m2
03:44 27.0 °C 24.0 °C 1011.2 hPa Calm     86% 0.00 mm 0.00 W/m2
03:49 27.0 °C 24.0 °C 1011.0 hPa Calm     86% 0.00 mm 0.00 W/m2
03:54 27.0 °C 24.0 °C 1011.1 hPa Calm     86% 0.00 mm 0.00 W/m2
03:59 27.0 °C 24.0 °C 1011.0 hPa Calm     86% 0.00 mm 0.00 W/m2
04:01 27.0 °C 24.0 °C 1010.9 hPa Calm     86% 0.00 mm 0.00 W/m2
04:14 27.0 °C 24.0 °C 1010.9 hPa Calm     86% 0.00 mm 0.00 W/m2
04:19 27.0 °C 24.0 °C 1010.9 hPa Calm     87% 0.00 mm 0.00 W/m2
04:24 27.0 °C 24.0 °C 1010.9 hPa Calm     87% 0.00 mm 0.00 W/m2
04:29 27.0 °C 24.0 °C 1011.1 hPa Calm     87% 0.00 mm 0.00 W/m2
04:34 27.0 °C 24.0 °C 1011.0 hPa Calm     87% 0.00 mm 0.00 W/m2
04:39 27.0 °C 24.0 °C 1011.0 hPa Calm     87% 0.00 mm 0.00 W/m2
04:44 27.0 °C 24.0 °C 1010.9 hPa Calm     87% 0.00 mm 0.00 W/m2
04:49 27.0 °C 24.0 °C 1011.1 hPa Calm     87% 0.00 mm 0.00 W/m2
04:54 27.0 °C 24.0 °C 1011.1 hPa Calm     87% 0.00 mm 0.00 W/m2
04:59 26.0 °C 24.0 °C 1011.3 hPa Calm     87% 0.00 mm 0.00 W/m2
05:04 26.0 °C 24.0 °C 1011.3 hPa Calm     87% 0.00 mm 0.00 W/m2
05:09 26.0 °C 24.0 °C 1011.6 hPa Calm     87% 0.00 mm 0.00 W/m2
05:14 26.0 °C 24.0 °C 1011.6 hPa Calm     88% 0.00 mm 0.00 W/m2
05:19 26.0 °C 24.0 °C 1011.8 hPa Calm     88% 0.00 mm 0.00 W/m2
05:24 27.0 °C 24.0 °C 1011.8 hPa SSE 1 km/h 4 km/h 87% 0.00 mm 0.00 W/m2
05:29 27.0 °C 24.0 °C 1011.9 hPa Calm     87% 0.00 mm 0.00 W/m2
05:34 27.0 °C 24.0 °C 1012.0 hPa Calm     87% 0.00 mm 0.00 W/m2
05:39 27.0 °C 24.0 °C 1012.1 hPa Calm     87% 0.00 mm 0.85 W/m2
05:44 27.0 °C 24.0 °C 1012.1 hPa Calm     87% 0.00 mm 1.71 W/m2
05:45 27.0 °C 24.0 °C 1012.1 hPa Calm     87% 0.00 mm 2.94 W/m2
05:54 27.0 °C 24.0 °C 1012.1 hPa Calm     88% 0.00 mm 9.91 W/m2
05:59 27.0 °C 24.0 °C 1012.1 hPa SSE 1 km/h 4 km/h 88% 0.00 mm 15.53 W/m2
06:04 27.0 °C 24.0 °C 1012.2 hPa Calm   4 km/h 87% 0.00 mm 20.80 W/m2
06:09 27.0 °C 25.0 °C 1012.2 hPa Calm     87% 0.00 mm 25.94 W/m2
06:14 27.0 °C 25.0 °C 1012.4 hPa Calm     87% 0.00 mm 32.90 W/m2
06:19 27.0 °C 25.0 °C 1012.4 hPa Calm     87% 0.00 mm 39.39 W/m2
06:24 27.0 °C 25.0 °C 1012.7 hPa Calm     86% 0.00 mm 45.87 W/m2
06:29 27.0 °C 25.0 °C 1012.7 hPa Calm   4 km/h 86% 0.00 mm 52.48 W/m2
06:34 27.0 °C 25.0 °C 1012.8 hPa SSE 1 km/h 4 km/h 85% 0.00 mm 56.76 W/m2
06:39 28.0 °C 25.0 °C 1013.0 hPa SSE 3 km/h 4 km/h 85% 0.00 mm 64.96 W/m2
06:44 28.0 °C 25.0 °C 1012.8 hPa Calm     84% 0.00 mm 75.85 W/m2
06:49 28.0 °C 25.0 °C 1012.8 hPa SSE 1 km/h 4 km/h 83% 0.00 mm 87.10 W/m2
06:54 28.0 °C 25.0 °C 1012.9 hPa Calm     83% 0.00 mm 94.56 W/m2
06:59 28.0 °C 25.0 °C 1012.9 hPa SSE 1 km/h 4 km/h 82% 0.00 mm 107.90 W/m2
07:04 28.0 °C 25.0 °C 1012.8 hPa Calm     81% 0.00 mm 135.30 W/m2
07:09 29.0 °C 25.0 °C 1012.8 hPa SSE 2 km/h 4 km/h 81% 0.00 mm 157.81 W/m2
07:14 29.0 °C 25.0 °C 1012.7 hPa ENE 6 km/h 8 km/h 80% 0.00 mm 180.81 W/m2
07:19 29.0 °C 25.0 °C 1012.6 hPa East 3 km/h 4 km/h 80% 0.00 mm 220.32 W/m2
07:24 29.0 °C 25.0 °C 1012.7 hPa SE 4 km/h 8 km/h 79% 0.00 mm 257.64 W/m2
07:29 29.0 °C 25.0 °C 1012.8 hPa SE 5 km/h 8 km/h 79% 0.00 mm 224.24 W/m2
07:34 29.0 °C 25.0 °C 1012.7 hPa SE 4 km/h 4 km/h 79% 0.00 mm 207.73 W/m2
07:39 29.0 °C 25.0 °C 1012.6 hPa Calm   4 km/h 79% 0.00 mm 199.90 W/m2
07:44 29.0 °C 25.0 °C 1012.8 hPa North 12 km/h 12 km/h 80% 0.00 mm 193.90 W/m2
07:49 29.0 °C 25.0 °C 1012.8 hPa NNW 15 km/h 16 km/h 80% 0.00 mm 194.76 W/m2
07:54 29.0 °C 25.0 °C 1012.8 hPa NNW 15 km/h 16 km/h 80% 0.00 mm 196.84 W/m2
07:59 29.0 °C 25.0 °C 1013.0 hPa North 9 km/h 12 km/h 80% 0.00 mm 262.41 W/m2
08:04 29.0 °C 25.0 °C 1012.9 hPa NNE 8 km/h 12 km/h 79% 0.00 mm 446.28 W/m2
08:09 30.0 °C 25.0 °C 1012.9 hPa East 7 km/h 8 km/h 77% 0.00 mm 541.33 W/m2
08:14 31.0 °C 25.0 °C 1012.8 hPa ESE 4 km/h 8 km/h 74% 0.00 mm 548.67 W/m2
08:19 31.0 °C 25.0 °C 1012.8 hPa ESE 12 km/h 16 km/h 73% 0.00 mm 525.31 W/m2
08:24 31.0 °C 25.0 °C 1012.9 hPa East 17 km/h 20 km/h 73% 0.00 mm 374.35 W/m2
08:29 31.0 °C 25.0 °C 1012.9 hPa South 18 km/h 20 km/h 73% 0.00 mm 346.95 W/m2
08:34 30.0 °C 25.0 °C 1013.1 hPa SSW 15 km/h 20 km/h 73% 0.00 mm 351.71 W/m2
08:39 30.0 °C 25.0 °C 1013.1 hPa SSW 14 km/h 16 km/h 73% 0.00 mm 707.10 W/m2
08:44 31.0 °C 25.0 °C 1013.4 hPa SW 5 km/h 12 km/h 72% 0.00 mm 730.96 W/m2
08:49 31.0 °C 25.0 °C 1013.3 hPa South 12 km/h 16 km/h 70% 0.00 mm 732.67 W/m2
08:54 32.0 °C 25.0 °C 1013.2 hPa SE 5 km/h 8 km/h 69% 0.00 mm 702.70 W/m2
08:59 32.0 °C 25.0 °C 1013.3 hPa East 6 km/h 8 km/h 67% 0.00 mm 719.21 W/m2
09:04 32.0 °C 25.0 °C 1013.3 hPa SSW 15 km/h 20 km/h 68% 0.00 mm 442.86 W/m2
09:09 31.0 °C 25.0 °C 1013.2 hPa SSW 18 km/h 24 km/h 71% 0.00 mm 453.25 W/m2
09:14 31.0 °C 25.0 °C 1013.2 hPa SSW 18 km/h 20 km/h 72% 0.00 mm 501.45 W/m2
09:19 31.0 °C 25.0 °C 1013.2 hPa SSW 23 km/h 28 km/h 70% 0.00 mm 540.48 W/m2
09:24 31.0 °C 25.0 °C 1013.3 hPa SW 8 km/h 12 km/h 69% 0.00 mm 721.78 W/m2
09:29 32.0 °C 25.0 °C 1013.2 hPa WSW 13 km/h 16 km/h 68% 0.00 mm 981.63 W/m2
09:34 32.0 °C 25.0 °C 1013.4 hPa WSW 17 km/h 20 km/h 66% 0.00 mm 908.34 W/m2
09:39 32.0 °C 25.0 °C 1013.3 hPa SW 16 km/h 24 km/h 67% 0.00 mm 872.75 W/m2
09:44 32.0 °C 24.0 °C 1013.3 hPa SW 21 km/h 24 km/h 67% 0.00 mm 887.55 W/m2
09:49 32.0 °C 25.0 °C 1013.3 hPa SW 17 km/h 20 km/h 67% 0.00 mm 948.22 W/m2
09:54 32.0 °C 24.0 °C 1013.2 hPa West 15 km/h 20 km/h 65% 0.00 mm 1027.62 W/m2
09:59 32.0 °C 24.0 °C 1013.0 hPa WSW 20 km/h 24 km/h 62% 0.00 mm 1079.25 W/m2
10:04 32.0 °C 24.0 °C 1013.2 hPa WSW 15 km/h 20 km/h 62% 0.00 mm 984.32 W/m2
10:09 33.0 °C 24.0 °C 1013.3 hPa WSW 9 km/h 12 km/h 60% 0.00 mm 1075.82 W/m2
10:14 33.0 °C 24.0 °C 1013.1 hPa SW 15 km/h 24 km/h 60% 0.00 mm 1166.96 W/m2
10:19 33.0 °C 24.0 °C 1013.1 hPa West 15 km/h 24 km/h 58% 0.00 mm 1212.47 W/m2
10:24 33.0 °C 23.0 °C 1013.1 hPa West 13 km/h 16 km/h 55% 0.00 mm 1061.88 W/m2
10:29 33.0 °C 23.0 °C 1013.2 hPa South 19 km/h 24 km/h 55% 0.00 mm 1151.30 W/m2
10:34 33.0 °C 23.0 °C 1013.2 hPa SSW 29 km/h 32 km/h 56% 0.00 mm 1018.93 W/m2
10:39 33.0 °C 23.0 °C 1013.0 hPa South 15 km/h 20 km/h 55% 0.00 mm 1139.56 W/m2
10:44 33.0 °C 22.0 °C 1013.1 hPa South 21 km/h 24 km/h 53% 0.00 mm 1020.65 W/m2
10:49 33.0 °C 22.0 °C 1013.1 hPa South 12 km/h 16 km/h 53% 0.00 mm 1171.74 W/m2
10:54 34.0 °C 23.0 °C 1013.0 hPa NW 12 km/h 16 km/h 51% 0.00 mm 1173.45 W/m2
10:59 34.0 °C 23.0 °C 1013.0 hPa SW 22 km/h 28 km/h 53% 0.00 mm 935.63 W/m2
11:04 34.0 °C 23.0 °C 1012.9 hPa WSW 28 km/h 32 km/h 53% 0.00 mm 888.77 W/m2
11:09 34.0 °C 23.0 °C 1012.8 hPa SW 20 km/h 28 km/h 52% 0.00 mm 962.54 W/m2
11:14 34.0 °C 23.0 °C 1012.7 hPa SSW 15 km/h 28 km/h 52% 0.00 mm 1035.45 W/m2
11:19 34.0 °C 22.0 °C 1012.7 hPa SW 21 km/h 28 km/h 52% 0.00 mm 1002.91 W/m2
11:24 34.0 °C 22.0 °C 1012.6 hPa SW 13 km/h 16 km/h 51% 0.00 mm 872.75 W/m2
11:29 34.0 °C 22.0 °C 1012.4 hPa SW 19 km/h 32 km/h 51% 0.00 mm 988.23 W/m2
11:34 34.0 °C 22.0 °C 1012.3 hPa SSW 27 km/h 32 km/h 52% 0.00 mm 914.83 W/m2
11:39 34.0 °C 23.0 °C 1012.3 hPa SW 24 km/h 36 km/h 53% 0.00 mm 903.58 W/m2
11:44 34.0 °C 23.0 °C 1012.2 hPa WSW 18 km/h 24 km/h 53% 0.00 mm 907.49 W/m2
11:49 34.0 °C 23.0 °C 1012.1 hPa West 16 km/h 32 km/h 53% 0.00 mm 912.63 W/m2
11:54 34.0 °C 23.0 °C 1012.0 hPa SW 19 km/h 24 km/h 55% 0.00 mm 923.51 W/m2
11:59 34.0 °C 23.0 °C 1012.0 hPa SSE 15 km/h 16 km/h 54% 0.00 mm 919.60 W/m2
12:04 34.0 °C 24.0 °C 1011.8 hPa SW 19 km/h 24 km/h 56% 0.00 mm 939.54 W/m2
12:09 34.0 °C 24.0 °C 1011.7 hPa SSW 30 km/h 40 km/h 57% 0.00 mm 812.43 W/m2
12:14 34.0 °C 23.0 °C 1011.8 hPa WSW 14 km/h 20 km/h 55% 0.00 mm 895.37 W/m2
12:19 34.0 °C 24.0 °C 1011.5 hPa West 14 km/h 20 km/h 56% 0.00 mm 850.60 W/m2
12:24 34.0 °C 24.0 °C 1011.6 hPa SW 23 km/h 28 km/h 55% 0.00 mm 853.66 W/m2
12:29 34.0 °C 23.0 °C 1011.5 hPa SW 20 km/h 28 km/h 54% 0.00 mm 901.86 W/m2
12:34 34.0 °C 24.0 °C 1011.4 hPa WSW 19 km/h 24 km/h 55% 0.00 mm 883.14 W/m2
12:39 35.0 °C 24.0 °C 1011.4 hPa WNW 22 km/h 24 km/h 55% 0.00 mm 894.52 W/m2
12:44 35.0 °C 24.0 °C 1011.3 hPa West 15 km/h 20 km/h 55% 0.00 mm 883.14 W/m2
12:49 34.0 °C 24.0 °C 1011.3 hPa NW 17 km/h 28 km/h 56% 0.00 mm 889.26 W/m2
12:54 34.0 °C 24.0 °C 1011.1 hPa West 18 km/h 24 km/h 55% 0.00 mm 852.44 W/m2
12:59 34.0 °C 24.0 °C 1011.0 hPa SW 24 km/h 36 km/h 57% 0.00 mm 862.83 W/m2
13:04 34.0 °C 24.0 °C 1010.9 hPa WNW 16 km/h 20 km/h 56% 0.00 mm 855.86 W/m2
13:09 34.0 °C 24.0 °C 1010.9 hPa SW 16 km/h 20 km/h 55% 0.00 mm 860.14 W/m2
13:14 34.0 °C 24.0 °C 1011.0 hPa SW 20 km/h 28 km/h 54% 0.00 mm 835.92 W/m2
13:19 34.0 °C 23.0 °C 1011.0 hPa SW 30 km/h 36 km/h 55% 0.00 mm 848.03 W/m2
13:24 33.0 °C 23.0 °C 1011.0 hPa WSW 25 km/h 36 km/h 55% 0.00 mm 845.83 W/m2
13:29 34.0 °C 23.0 °C 1010.8 hPa SW 29 km/h 32 km/h 52% 0.00 mm 819.41 W/m2
13:34 34.0 °C 24.0 °C 1010.7 hPa WSW 17 km/h 24 km/h 54% 0.00 mm 822.83 W/m2
13:39 34.0 °C 24.0 °C 1010.8 hPa WSW 15 km/h 20 km/h 54% 0.00 mm 842.41 W/m2
13:44 35.0 °C 23.0 °C 1010.7 hPa NW 15 km/h 24 km/h 53% 0.00 mm 844.12 W/m2
13:49 34.0 °C 23.0 °C 1010.6 hPa SW 26 km/h 32 km/h 53% 0.00 mm 849.38 W/m2
13:54 34.0 °C 23.0 °C 1010.6 hPa SW 21 km/h 28 km/h 54% 0.00 mm 824.66 W/m2
13:59 34.0 °C 23.0 °C 1010.5 hPa SW 27 km/h 32 km/h 55% 0.00 mm 809.87 W/m2
14:04 34.0 °C 23.0 °C 1010.6 hPa WSW 20 km/h 32 km/h 56% 0.00 mm 784.29 W/m2
14:09 34.0 °C 24.0 °C 1010.4 hPa West 15 km/h 24 km/h 56% 0.00 mm 837.63 W/m2
14:14 34.0 °C 24.0 °C 1010.4 hPa WNW 13 km/h 20 km/h 56% 0.00 mm 772.19 W/m2
14:19 34.0 °C 25.0 °C 1010.3 hPa WSW 23 km/h 32 km/h 58% 0.00 mm 756.89 W/m2
14:24 34.0 °C 24.0 °C 1010.5 hPa SW 15 km/h 20 km/h 57% 0.00 mm 711.38 W/m2
14:29 34.0 °C 24.0 °C 1010.6 hPa West 14 km/h 20 km/h 53% 0.00 mm 725.70 W/m2
14:34 34.0 °C 24.0 °C 1010.5 hPa SW 21 km/h 24 km/h 55% 0.00 mm 730.96 W/m2
14:39 34.0 °C 24.0 °C 1010.6 hPa West 13 km/h 20 km/h 54% 0.00 mm 711.87 W/m2
14:44 35.0 °C 24.0 °C 1010.7 hPa West 10 km/h 12 km/h 53% 0.00 mm 699.27 W/m2
14:49 35.0 °C 24.0 °C 1010.3 hPa SW 19 km/h 20 km/h 52% 0.00 mm 703.19 W/m2
14:54 35.0 °C 23.0 °C 1010.3 hPa SSW 29 km/h 36 km/h 53% 0.00 mm 687.53 W/m2
14:59 33.0 °C 23.0 °C 1010.2 hPa SW 30 km/h 36 km/h 55% 0.00 mm 639.33 W/m2
15:04 34.0 °C 23.0 °C 1010.2 hPa SSW 20 km/h 20 km/h 55% 0.00 mm 630.77 W/m2
15:09 34.0 °C 23.0 °C 1010.3 hPa WSW 18 km/h 24 km/h 55% 0.00 mm 624.16 W/m2
15:14 35.0 °C 23.0 °C 1010.4 hPa WNW 14 km/h 20 km/h 51% 0.00 mm 668.93 W/m2
15:19 35.0 °C 23.0 °C 1010.3 hPa West 17 km/h 24 km/h 54% 0.00 mm 679.33 W/m2
15:24 34.0 °C 23.0 °C 1010.4 hPa SW 18 km/h 28 km/h 53% 0.00 mm 640.67 W/m2
15:29 34.0 °C 23.0 °C 1010.2 hPa West 14 km/h 20 km/h 52% 0.00 mm 602.01 W/m2
15:34 34.0 °C 23.0 °C 1010.2 hPa West 25 km/h 32 km/h 52% 0.00 mm 665.02 W/m2
15:39 34.0 °C 23.0 °C 1010.3 hPa NW 19 km/h 20 km/h 53% 0.00 mm 531.79 W/m2
15:44 34.0 °C 23.0 °C 1010.2 hPa WNW 13 km/h 16 km/h 51% 0.00 mm 529.59 W/m2
15:49 34.0 °C 23.0 °C 1010.3 hPa SW 14 km/h 16 km/h 53% 0.00 mm 498.89 W/m2
15:54 34.0 °C 23.0 °C 1010.2 hPa NW 8 km/h 12 km/h 53% 0.00 mm 478.82 W/m2
15:59 34.0 °C 23.0 °C 1010.3 hPa WSW 9 km/h 12 km/h 52% 0.00 mm 399.06 W/m2
16:04 34.0 °C 23.0 °C 1010.0 hPa WNW 14 km/h 16 km/h 53% 0.00 mm 350.49 W/m2
16:09 34.0 °C 23.0 °C 1010.1 hPa NW 10 km/h 12 km/h 54% 0.00 mm 300.58 W/m2
16:14 34.0 °C 23.0 °C 1010.2 hPa SW 5 km/h 8 km/h 55% 0.00 mm 181.67 W/m2
16:19 34.0 °C 23.0 °C 1010.4 hPa SSW 11 km/h 16 km/h 56% 0.00 mm 149.98 W/m2
16:24 33.0 °C 24.0 °C 1010.5 hPa West 10 km/h 16 km/h 57% 0.00 mm 128.82 W/m2
16:29 33.0 °C 23.0 °C 1010.3 hPa NW 18 km/h 20 km/h 57% 0.00 mm 120.13 W/m2
16:34 33.0 °C 23.0 °C 1010.2 hPa SW 14 km/h 16 km/h 58% 0.00 mm 103.13 W/m2
16:39 33.0 °C 23.0 °C 1010.2 hPa WSW 8 km/h 12 km/h 58% 0.00 mm 85.88 W/m2
16:44 33.0 °C 24.0 °C 1010.1 hPa SW 8 km/h 12 km/h 58% 0.00 mm 73.65 W/m2
16:49 33.0 °C 24.0 °C 1010.1 hPa WNW 4 km/h 4 km/h 59% 0.00 mm 57.25 W/m2
16:54 33.0 °C 24.0 °C 1010.0 hPa South 16 km/h 20 km/h 60% 0.00 mm 41.59 W/m2
16:59 32.0 °C 24.0 °C 1010.1 hPa SE 19 km/h 28 km/h 65% 0.00 mm 38.53 W/m2
17:04 32.0 °C 24.0 °C 1010.4 hPa ESE 26 km/h 36 km/h 66% 0.00 mm 35.48 W/m2
17:09 31.0 °C 24.0 °C 1010.4 hPa SE 30 km/h 36 km/h 67% 0.00 mm 29.85 W/m2
17:14 31.0 °C 24.0 °C 1010.4 hPa SSE 17 km/h 24 km/h 68% 0.00 mm 28.99 W/m2
17:19 31.0 °C 24.0 °C 1010.1 hPa SE 18 km/h 24 km/h 68% 0.00 mm 26.42 W/m2
17:24 31.0 °C 24.0 °C 1010.2 hPa SE 18 km/h 24 km/h 70% 0.00 mm 20.80 W/m2
17:29 30.0 °C 25.0 °C 1009.9 hPa ESE 12 km/h 20 km/h 71% 0.00 mm 16.02 W/m2
17:34 30.0 °C 25.0 °C 1010.1 hPa SE 12 km/h 16 km/h 73% 0.00 mm 13.82 W/m2
17:39 30.0 °C 25.0 °C 1010.0 hPa SE 9 km/h 16 km/h 75% 0.00 mm 12.97 W/m2
17:44 30.0 °C 25.0 °C 1010.2 hPa South 9 km/h 16 km/h 74% 0.00 mm 12.48 W/m2
17:49 30.0 °C 25.0 °C 1010.3 hPa SE 14 km/h 16 km/h 74% 0.00 mm 12.97 W/m2
17:54 30.0 °C 25.0 °C 1010.3 hPa East 9 km/h 16 km/h 74% 0.00 mm 12.48 W/m2
17:59 30.0 °C 25.0 °C 1010.4 hPa ENE 7 km/h 8 km/h 73% 0.00 mm 11.25 W/m2
18:04 30.0 °C 24.0 °C 1010.4 hPa ENE 4 km/h 8 km/h 71% 0.00 mm 9.91 W/m2
18:09 30.0 °C 24.0 °C 1010.6 hPa ENE 5 km/h 8 km/h 71% 0.00 mm 8.19 W/m2
18:14 30.0 °C 24.0 °C 1010.6 hPa East 3 km/h 8 km/h 71% 0.00 mm 5.99 W/m2
18:19 30.0 °C 24.0 °C 1010.6 hPa SE 5 km/h 8 km/h 70% 0.00 mm 2.08 W/m2
18:24 30.0 °C 24.0 °C 1010.7 hPa East 4 km/h 4 km/h 70% 0.00 mm 0.36 W/m2
18:29 30.0 °C 24.0 °C 1011.0 hPa ESE 4 km/h 4 km/h 70% 0.00 mm 0.00 W/m2
18:34 30.0 °C 24.0 °C 1010.8 hPa ENE 4 km/h 8 km/h 69% 0.00 mm 0.00 W/m2
18:39 30.0 °C 24.0 °C 1010.8 hPa East 5 km/h 8 km/h 69% 0.00 mm 0.00 W/m2
18:44 30.0 °C 24.0 °C 1010.9 hPa SSE 8 km/h 12 km/h 69% 0.00 mm 0.00 W/m2
18:49 30.0 °C 24.0 °C 1011.1 hPa SE 6 km/h 8 km/h 70% 0.00 mm 0.00 W/m2
18:54 30.0 °C 24.0 °C 1011.1 hPa ESE 6 km/h 8 km/h 69% 0.00 mm 0.00 W/m2
18:59 30.0 °C 24.0 °C 1011.0 hPa SE 3 km/h 4 km/h 69% 0.00 mm 0.00 W/m2
19:04 30.0 °C 24.0 °C 1011.2 hPa SE 10 km/h 12 km/h 69% 0.00 mm 0.00 W/m2
19:09 30.0 °C 24.0 °C 1011.1 hPa SSE 7 km/h 16 km/h 70% 0.00 mm 0.00 W/m2
19:14 30.0 °C 24.0 °C 1011.0 hPa ESE 12 km/h 16 km/h 71% 0.00 mm 0.00 W/m2
19:18 30.0 °C 24.0 °C 1011.2 hPa ESE 5 km/h 8 km/h 70% 0.00 mm 0.00 W/m2
19:24 30.0 °C 24.0 °C 1011.2 hPa SE 8 km/h 12 km/h 70% 0.00 mm 0.00 W/m2
19:29 30.0 °C 24.0 °C 1011.3 hPa SE 6 km/h 8 km/h 70% 0.00 mm 0.00 W/m2
19:34 30.0 °C 24.0 °C 1011.5 hPa ESE 13 km/h 16 km/h 70% 0.00 mm 0.00 W/m2
19:39 30.0 °C 24.0 °C 1011.4 hPa ESE 5 km/h 8 km/h 71% 0.00 mm 0.00 W/m2
19:44 30.0 °C 24.0 °C 1011.5 hPa SSE 10 km/h 12 km/h 71% 0.00 mm 0.00 W/m2
19:49 30.0 °C 24.0 °C 1011.5 hPa SE 8 km/h 12 km/h 71% 0.00 mm 0.00 W/m2
19:54 30.0 °C 24.0 °C 1011.6 hPa SSE 7 km/h 8 km/h 72% 0.00 mm 0.00 W/m2
19:59 30.0 °C 24.0 °C 1011.4 hPa ESE 6 km/h 8 km/h 71% 0.00 mm 0.00 W/m2
20:04 30.0 °C 24.0 °C 1011.5 hPa SE 8 km/h 12 km/h 71% 0.00 mm 0.00 W/m2
20:09 30.0 °C 24.0 °C 1011.6 hPa SE 9 km/h 12 km/h 71% 0.00 mm 0.00 W/m2
20:14 30.0 °C 24.0 °C 1011.7 hPa SE 5 km/h 8 km/h 71% 0.00 mm 0.00 W/m2
20:19 30.0 °C 24.0 °C 1011.7 hPa SE 6 km/h 8 km/h 71% 0.00 mm 0.00 W/m2
20:24 30.0 °C 24.0 °C 1011.6 hPa East 6 km/h 8 km/h 71% 0.00 mm 0.00 W/m2
20:29 30.0 °C 24.0 °C 1011.6 hPa SSE 6 km/h 12 km/h 71% 0.00 mm 0.00 W/m2
20:34 30.0 °C 24.0 °C 1011.7 hPa SE 5 km/h 8 km/h 71% 0.00 mm 0.00 W/m2
20:39 30.0 °C 24.0 °C 1011.8 hPa SE 4 km/h 8 km/h 71% 0.00 mm 0.00 W/m2
20:44 30.0 °C 24.0 °C 1011.5 hPa SE 9 km/h 12 km/h 71% 0.00 mm 0.00 W/m2
20:49 29.0 °C 24.0 °C 1011.5 hPa SE 12 km/h 24 km/h 71% 0.00 mm 0.00 W/m2
20:54 29.0 °C 24.0 °C 1011.6 hPa SE 12 km/h 16 km/h 72% 0.00 mm 0.00 W/m2
20:59 29.0 °C 24.0 °C 1011.5 hPa SSE 10 km/h 12 km/h 72% 0.00 mm 0.00 W/m2
21:04 29.0 °C 24.0 °C 1011.6 hPa SE 6 km/h 8 km/h 72% 0.00 mm 0.00 W/m2
21:09 29.0 °C 24.0 °C 1011.6 hPa SSE 11 km/h 16 km/h 72% 0.00 mm 0.00 W/m2
21:14 29.0 °C 24.0 °C 1011.7 hPa SE 8 km/h 12 km/h 72% 0.00 mm 0.00 W/m2
21:19 29.0 °C 24.0 °C 1011.6 hPa SE 14 km/h 24 km/h 72% 0.00 mm 0.00 W/m2
21:24 29.0 °C 24.0 °C 1011.8 hPa ESE 15 km/h 20 km/h 72% 0.00 mm 0.00 W/m2
21:29 29.0 °C 24.0 °C 1011.6 hPa SE 5 km/h 8 km/h 72% 0.00 mm 0.00 W/m2
21:34 29.0 °C 24.0 °C 1011.7 hPa ESE 5 km/h 12 km/h 72% 0.00 mm 0.00 W/m2
21:39 29.0 °C 24.0 °C 1011.7 hPa SSE 20 km/h 24 km/h 72% 0.00 mm 0.00 W/m2
21:44 29.0 °C 24.0 °C 1012.0 hPa SSE 14 km/h 20 km/h 72% 0.00 mm 0.00 W/m2
21:49 29.0 °C 24.0 °C 1011.9 hPa South 17 km/h 20 km/h 72% 0.00 mm 0.00 W/m2
21:54 29.0 °C 24.0 °C 1012.0 hPa SSE 10 km/h 12 km/h 72% 0.00 mm 0.00 W/m2
21:59 29.0 °C 24.0 °C 1012.0 hPa SSE 8 km/h 12 km/h 72% 0.00 mm 0.00 W/m2
22:04 29.0 °C 24.0 °C 1012.0 hPa SSE 6 km/h 8 km/h 72% 0.00 mm 0.00 W/m2
22:09 29.0 °C 24.0 °C 1012.0 hPa SSE 6 km/h 12 km/h 73% 0.00 mm 0.00 W/m2
22:14 29.0 °C 24.0 °C 1011.8 hPa SSE 9 km/h 12 km/h 73% 0.00 mm 0.00 W/m2
22:18 29.0 °C 24.0 °C 1012.0 hPa SSW 13 km/h 16 km/h 73% 0.00 mm 0.00 W/m2
22:29 29.0 °C 24.0 °C 1011.8 hPa SE 9 km/h 16 km/h 73% 0.00 mm 0.00 W/m2
22:34 29.0 °C 24.0 °C 1011.9 hPa SSE 12 km/h 16 km/h 73% 0.00 mm 0.00 W/m2
22:39 29.0 °C 24.0 °C 1011.9 hPa SE 13 km/h 24 km/h 73% 0.00 mm 0.00 W/m2
22:44 29.0 °C 24.0 °C 1011.8 hPa ESE 14 km/h 20 km/h 73% 0.00 mm 0.00 W/m2
22:49 29.0 °C 24.0 °C 1011.8 hPa SSE 14 km/h 20 km/h 74% 0.00 mm 0.00 W/m2
22:54 29.0 °C 24.0 °C 1011.8 hPa SE 17 km/h 20 km/h 74% 0.00 mm 0.00 W/m2
22:59 29.0 °C 24.0 °C 1011.6 hPa SE 14 km/h 20 km/h 74% 0.00 mm 0.00 W/m2
23:04 29.0 °C 24.0 °C 1011.6 hPa SSE 14 km/h 16 km/h 74% 0.00 mm 0.00 W/m2
23:09 29.0 °C 24.0 °C 1011.7 hPa SE 5 km/h 8 km/h 74% 0.00 mm 0.00 W/m2
23:14 29.0 °C 24.0 °C 1011.9 hPa South 10 km/h 12 km/h 75% 0.00 mm 0.00 W/m2
23:19 29.0 °C 24.0 °C 1011.6 hPa SSE 13 km/h 16 km/h 75% 0.00 mm 0.00 W/m2
23:24 29.0 °C 24.0 °C 1011.6 hPa SSE 14 km/h 16 km/h 75% 0.00 mm 0.00 W/m2
23:29 29.0 °C 24.0 °C 1011.7 hPa SSE 11 km/h 16 km/h 75% 0.00 mm 0.00 W/m2
23:34 29.0 °C 24.0 °C 1011.5 hPa SSE 12 km/h 12 km/h 75% 0.00 mm 0.00 W/m2
23:39 29.0 °C 24.0 °C 1011.6 hPa SE 12 km/h 20 km/h 75% 0.00 mm 0.00 W/m2
23:44 29.0 °C 24.0 °C 1011.7 hPa SSE 3 km/h 4 km/h 75% 0.00 mm 0.00 W/m2
23:49 29.0 °C 24.0 °C 1011.8 hPa SSE 3 km/h 4 km/h 75% 0.00 mm 0.00 W/m2
23:54 29.0 °C 24.0 °C 1011.7 hPa East 5 km/h 8 km/h 75% 0.00 mm 0.00 W/m2
23:59 29.0 °C 24.0 °C 1011.5 hPa NE 4 km/h 4 km/h 74% 0.00 mm 0.00 W/m2
PIMOHWEATHER Philippines
Compliments of Weather Underground - 2 mb